Wind_Speed
45 46 46 46 46 45 45 45 44 43 43 42 41 41 40 40 40 39 38 37 37 37 37 36 36 37 37 37 37 38 38 38 39 39 39 39 39 40 41 42 43 43 44
45 46 46 46 46 46 47 46 46 45 44 44 43 44 44 43 42 41 41 41 40 40 40 39 39 39 39 39 40 40 40 40 41 41 41 40 41 42 43 44 45 45 45
45 45 46 46 46 46 46 47 47 47 47 46 46 45 45 45 44 43 43 42 42 42 42 42 43 43 43 42 42 42 42 42 43 43 44 44 44 44 44 45 45 46 45
45 45 45 46 47 47 47 48 48 48 49 49 48 48 48 47 46 46 45 45 45 45 45 45 46 46 45 45 44 44 44 44 44 45 46 46 46 47 46 46 46 45 45
44 44 46 47 47 48 48 49 49 49 50 50 50 49 49 49 49 48 48 48 47 47 46 46 47 47 47 46 46 46 46 46 46 47 47 47 48 48 48 47 46 45 45
43 44 45 46 46 47 48 49 49 49 50 50 50 51 50 50 49 50 50 49 49 49 48 48 48 48 48 47 47 47 47 47 47 47 48 48 48 48 48 47 46 45 45
42 43 44 44 45 46 47 48 49 49 50 50 51 51 51 51 50 50 50 49 49 49 49 49 49 49 49 48 48 48 48 48 48 48 48 48 47 47 46 46 46 45 45
40 41 42 43 44 45 45 46 47 49 49 50 50 51 51 52 52 52 51 51 51 51 50 49 49 49 49 49 49 49 49 48 48 48 47 47 46 46 45 45 45 45 45
39 40 41 42 43 44 44 45 46 48 49 50 50 50 51 51 51 52 52 51 50 50 50 49 50 50 50 49 49 49 49 49 49 48 47 46 46 45 45 45 45 45 44
38 39 41 41 41 43 44 44 45 46 47 48 49 49 50 50 51 52 52 51 51 50 49 50 51 51 51 51 50 51 51 50 49 48 48 47 46 45 45 45 45 44 43
35 38 40 41 40 41 42 43 44 44 45 46 48 48 49 49 50 51 51 51 51 50 49 50 50 50 51 51 50 50 49 49 48 48 47 47 46 46 45 45 44 44 43
34 35 37 39 40 40 41 42 43 43 43 44 45 46 47 47 48 49 49 49 49 49 49 49 48 48 48 48 47 47 47 47 47 46 46 46 45 45 45 44 44 44 43
34 35 36 38 39 40 41 41 42 43 43 43 43 44 45 45 45 46 46 46 46 47 47 47 47 47 47 47 47 46 46 46 46 46 45 45 45 45 44 44 43 43 42
34 35 36 37 38 39 39 40 41 42 43 43 43 44 44 44 44 44 44 45 45 45 46 46 46 46 46 45 45 45 45 45 45 44 44 43 43 43 43 42 41 41 40
34 35 36 36 37 38 39 39 40 41 42 42 42 42 42 42 42 43 43 43 44 44 44 44 45 45 44 44 43 43 44 44 44 43 43 42 42 42 41 40 40 39 38
34 35 37 37 37 38 38 39 39 40 41 42 42 41 41 41 41 41 41 42 42 43 43 43 43 43 42 42 42 42 42 42 42 41 41 41 41 40 39 38 38 36 35
33 34 36 37 37 38 38 38 38 39 40 41 41 41 41 41 41 41 41 41 42 42 42 41 41 41 40 41 41 41 41 41 40 40 39 39 38 37 37 36 35 34 33
31 32 34 35 35 36 37 37 37 38 39 39 40 40 40 40 41 41 40 40 40 40 41 41 40 40 40 40 39 39 39 39 39 38 37 36 35 35 34 34 33 32 32
29 30 31 32 33 34 35 36 36 37 37 38 38 38 39 39 39 39 39 39 39 39 39 39 39 38 38 38 38 38 37 37 36 36 34 34 34 33 33 32 32 31 30
28 29 30 31 31 32 33 34 34 35 35 36 37 37 38 37 37 37 37 37 37 37 37 37 37 37 37 37 36 36 35 35 34 33 33 33 33 32 31 30 30 29 29
27 27 28 30 30 31 32 33 33 33 34 34 35 36 37 36 36 36 36 36 36 36 36 36 36 36 36 35 35 35 34 33 33 32 32 31 31 30 29 29 29 28 28
26 27 27 28 29 29 30 31 32 32 32 33 33 34 35 35 35 36 35 35 35 35 35 35 35 35 34 34 33 33 32 32 32 31 31 30 29 29 29 28 28 28 28
26 26 27 27 27 28 28 29 30 31 31 31 32 32 33 33 34 34 34 34 34 34 34 34 34 34 33 33 33 32 32 31 31 30 30 29 29 28 28 28 27 28 28
26 26 26 25 25 26 27 28 28 29 30 30 31 31 32 32 33 33 33 33 33 33 33 33 33 33 33 32 32 32 32 31 30 29 29 29 29 28 28 28 28 28 28
26 25 25 25 25 25 26 27 27 28 29 29 29 30 31 32 32 32 32 32 32 33 33 33 33 33 32 32 32 32 31 30 30 30 30 29 29 29 28 28 28 29 29
26 25 25 25 25 26 26 26 26 27 28 29 29 29 30 31 31 32 32 32 32 32 33 33 33 32 32 31 31 31 31 31 30 30 30 30 30 29 29 29 29 29 30
Wind_Direction
230 231 232 234 236 238 240 241 242 244 245 247 249 252 254 257 259 259 261 263 264 265 267 269 270 272 273 274 276 277 278 280 281 283 284 286 287 289 291 292 293 294 296
230 232 234 235 237 240 241 242 244 245 247 248 251 252 254 256 258 260 261 263 264 265 266 268 270 272 273 275 277 278 278 280 281 283 283 284 286 288 290 292 293 294 295
233 234 236 237 239 240 241 243 244 246 248 250 250 252 254 256 257 259 261 263 264 265 265 268 270 272 274 275 276 277 278 280 281 283 284 284 285 287 288 290 291 292 293
236 236 237 238 239 241 242 243 245 247 249 250 251 252 255 256 258 260 262 264 264 265 267 268 270 272 273 275 276 277 278 279 281 283 284 285 286 287 287 287 289 289 290
237 238 238 239 240 242 243 245 246 248 249 251 253 254 256 258 259 261 262 263 265 266 267 269 270 271 273 275 276 278 278 279 281 283 284 285 286 288 288 288 288 288 290
239 241 241 241 242 242 244 245 247 249 250 252 254 255 257 259 260 261 262 264 264 265 267 269 270 272 273 274 277 278 279 280 281 282 283 285 286 287 287 287 287 288 289
242 243 244 244 244 245 245 246 247 248 250 251 253 255 257 258 260 261 262 263 264 265 267 268 270 272 274 276 278 279 280 281 281 283 284 285 285 285 285 286 287 287 288
244 244 245 245 245 246 247 247 248 249 250 251 253 255 257 258 259 261 262 263 265 266 268 270 272 273 274 276 277 278 280 281 282 283 283 283 283 284 284 285 286 286 287
244 243 244 245 247 247 248 248 249 250 251 253 254 256 257 258 260 261 262 264 265 267 268 270 272 273 274 276 277 278 279 281 281 282 282 283 283 283 283 284 285 285 286
246 244 243 244 246 247 247 248 249 250 251 252 253 255 257 258 259 260 262 263 265 266 268 269 271 273 274 275 277 278 279 280 280 280 280 281 281 282 283 283 284 284 285
247 247 247 246 246 247 247 248 249 250 251 252 253 254 256 258 258 259 261 262 263 264 266 269 271 273 275 276 276 277 277 278 279 279 280 281 281 281 281 282 281 282 283
247 247 247 246 247 247 247 247 248 250 251 252 253 254 256 257 259 260 262 263 264 265 266 268 269 271 273 275 275 276 277 278 279 279 279 279 280 280 280 280 280 281 281
247 246 245 245 246 247 247 247 248 249 251 252 254 255 257 258 259 260 261 262 264 265 267 268 270 272 273 274 275 276 277 278 278 279 279 279 279 279 279 279 280 280 280
249 247 245 244 245 246 247 248 248 249 250 251 253 254 256 257 258 259 261 262 264 266 267 269 271 272 273 274 275 276 277 277 278 278 278 278 278 278 278 278 279 279 279
251 248 246 246 246 246 247 248 249 249 249 250 252 254 254 256 257 259 260 262 264 266 267 269 270 271 272 273 274 276 276 277 277 277 277 277 277 277 277 277 278 278 277
253 251 249 247 247 249 249 249 250 250 250 251 252 253 254 255 256 258 260 261 263 264 266 267 269 270 271 273 274 275 276 276 277 277 277 277 277 277 276 276 276 275 275
254 253 252 251 249 249 250 251 251 251 251 252 253 254 255 256 257 259 260 261 262 263 265 267 269 270 272 273 274 275 276 276 276 277 277 277 276 276 275 275 274 273 273
255 255 254 253 252 251 252 252 252 252 253 253 253 255 256 257 258 259 260 261 262 263 265 267 269 270 271 273 275 276 276 276 276 276 276 275 275 275 274 273 272 271 271
257 256 256 254 253 253 253 253 254 254 253 253 253 254 256 257 258 259 260 262 263 265 266 268 269 271 272 274 275 275 276 275 275 274 274 274 274 274 273 272 270 270 270
259 258 257 256 254 254 254 254 255 255 254 253 253 254 255 257 258 259 260 262 263 265 267 269 270 271 272 274 275 275 275 275 274 273 273 274 273 273 272 271 270 268 268
262 262 260 258 257 256 255 255 255 254 253 253 254 254 255 256 258 259 261 262 264 265 267 269 270 270 271 272 273 274 274 274 273 273 273 273 272 271 270 270 269 268 269
263 263 262 260 259 258 256 255 254 254 254 254 254 255 256 256 258 259 261 262 264 266 267 268 269 270 270 271 272 273 273 273 272 272 271 271 270 270 269 270 269 269 270
264 266 265 263 261 259 258 256 254 254 254 255 255 256 257 257 258 260 261 263 264 266 267 269 269 270 270 271 271 272 272 271 271 270 270 269 269 269 269 269 270 271 271
266 267 267 265 261 259 258 257 256 255 256 256 256 256 257 258 260 261 263 263 264 265 266 268 269 270 270 270 270 270 270 269 269 269 269 268 269 270 270 269 269 270 271
266 267 266 266 264 262 260 260 259 257 257 257 257 257 257 259 260 262 263 264 264 265 266 268 269 270 269 270 270 269 268 268 268 268 268 268 268 269 269 269 269 270 270
268 267 265 265 266 265 263 262 260 259 258 259 259 258 259 260 261 261 263 264 265 266 266 268 269 269 269 269 268 268 267 267 267 267 267 268 268 268 269 270 270 270 270
Height
5771 5775 5780 5784 5788 5792 5796 5799 5803 5806 5808 5811 5814 5816 5819 5821 5823 5824 5825 5826 5827 5827 5828 5828 5828 5828 5828 5828 5828 5827 5827 5825 5824 5824 5822 5820 5818 5816 5814 5812 5809 5807 5804
5763 5768 5772 5776 5780 5784 5788 5791 5795 5797 5800 5803 5805 5808 5810 5812 5814 5815 5817 5818 5818 5819 5819 5819 5820 5820 5820 5820 5819 5819 5818 5817 5815 5814 5813 5812 5811 5808 5805 5802 5800 5797 5795
5756 5760 5765 5769 5773 5776 5780 5783 5786 5789 5792 5794 5797 5799 5801 5803 5805 5806 5808 5808 5809 5810 5810 5810 5810 5810 5810 5810 5810 5809 5808 5808 5806 5805 5803 5802 5801 5799 5797 5793 5790 5788 5785
5748 5752 5756 5761 5764 5768 5771 5774 5778 5780 5783 5785 5787 5790 5792 5794 5796 5797 5798 5798 5799 5800 5800 5801 5801 5801 5800 5800 5800 5799 5798 5798 5797 5795 5793 5792 5790 5788 5787 5785 5781 5778 5776
5740 5743 5748 5752 5755 5758 5762 5765 5768 5771 5773 5775 5778 5780 5782 5784 5786 5787 5788 5788 5789 5789 5790 5790 5790 5790 5790 5790 5789 5788 5788 5787 5786 5784 5783 5781 5779 5777 5775 5774 5771 5768 5765
5731 5735 5738 5742 5745 5749 5752 5755 5758 5761 5763 5765 5767 5770 5772 5773 5775 5776 5777 5778 5778 5779 5779 5779 5779 5779 5779 5779 5778 5778 5777 5776 5775 5773 5772 5770 5768 5766 5763 5762 5760 5757 5755
5723 5726 5729 5732 5736 5739 5742 5745 5748 5750 5753 5755 5757 5759 5761 5762 5764 5765 5766 5767 5767 5768 5768 5768 5768 5768 5768 5768 5767 5767 5766 5765 5763 5762 5760 5759 5757 5755 5753 5750 5748 5746 5744
5713 5717 5720 5723 5726 5728 5731 5734 5737 5739 5741 5744 5746 5748 5749 5751 5753 5754 5755 5756 5756 5757 5757 5757 5757 5757 5757 5757 5756 5756 5754 5753 5752 5751 5749 5748 5746 5744 5742 5739 5737 5735 5733
5704 5707 5710 5713 5715 5718 5720 5723 5726 5728 5730 5732 5734 5736 5738 5739 5741 5742 5743 5744 5745 5745 5746 5746 5746 5746 5745 5745 5744 5744 5743 5742 5740 5739 5738 5736 5734 5732 5730 5728 5726 5724 5722
5694 5697 5700 5703 5705 5707 5710 5712 5715 5717 5719 5721 5723 5725 5726 5727 5729 5730 5731 5732 5733 5733 5734 5734 5734 5734 5734 5733 5732 5732 5731 5730 5729 5727 5726 5724 5723 5721 5719 5717 5715 5712 5711
5684 5687 5689 5692 5694 5697 5699 5701 5704 5706 5708 5709 5711 5713 5714 5716 5717 5718 5719 5720 5721 5721 5721 5722 5722 5722 5722 5721 5720 5720 5719 5718 5716 5715 5714 5712 5711 5709 5707 5705 5703 5701 5700
5674 5676 5679 5681 5684 5686 5688 5690 5693 5694 5696 5698 5700 5701 5703 5704 5705 5706 5707 5708 5709 5709 5710 5710 5710 5710 5709 5709 5708 5707 5706 5705 5704 5703 5702 5700 5699 5698 5696 5694 5692 5691 5689
5665 5667 5669 5671 5673 5675 5677 5679 5681 5683 5685 5687 5689 5690 5691 5693 5694 5695 5695 5696 5697 5698 5698 5698 5698 5698 5697 5697 5696 5695 5695 5694 5692 5691 5690 5689 5687 5686 5684 5683 5681 5679 5678
5655 5657 5658 5660 5662 5664 5666 5668 5670 5672 5674 5676 5677 5679 5680 5681 5682 5683 5684 5685 5685 5686 5686 5686 5686 5686 5686 5685 5684 5684 5683 5682 5680 5679 5678 5677 5675 5674 5673 5671 5670 5668 5667
5645 5647 5648 5650 5652 5654 5656 5658 5659 5661 5663 5665 5666 5668 5669 5670 5671 5672 5673 5673 5674 5674 5675 5675 5675 5674 5674 5673 5673 5672 5671 5670 5669 5668 5666 5665 5664 5663 5661 5660 5659 5658 5657
5635 5637 5638 5640 5641 5643 5645 5647 5649 5650 5652 5654 5655 5657 5658 5659 5660 5661 5662 5663 5663 5663 5664 5664 5664 5663 5663 5662 5661 5661 5660 5659 5657 5656 5655 5654 5653 5652 5650 5649 5648 5647 5647
5625 5626 5628 5630 5631 5633 5635 5636 5638 5640 5641 5643 5645 5646 5647 5648 5649 5650 5651 5652 5652 5653 5653 5653 5653 5652 5652 5651 5651 5650 5649 5647 5646 5645 5644 5643 5642 5641 5640 5639 5638 5637 5637
5616 5617 5618 5619 5621 5623 5624 5626 5628 5629 5631 5632 5634 5635 5636 5637 5638 5639 5640 5641 5641 5642 5642 5642 5642 5642 5641 5640 5640 5639 5637 5636 5635 5634 5633 5633 5632 5631 5630 5629 5628 5628 5628
5606 5607 5609 5610 5611 5613 5614 5616 5617 5619 5620 5622 5623 5624 5626 5627 5628 5629 5630 5630 5631 5631 5631 5631 5631 5631 5630 5630 5629 5628 5627 5626 5625 5624 5623 5623 5622 5621 5620 5620 5619 5619 5619
5598 5599 5599 5600 5601 5603 5604 5606 5607 5609 5610 5611 5613 5614 5615 5617 5618 5619 5619 5620 5620 5621 5621 5621 5620 5620 5620 5619 5618 5618 5617 5616 5615 5614 5614 5613 5613 5612 5611 5611 5610 5610 5610
5589 5590 5590 5591 5592 5593 5594 5596 5597 5599 5600 5601 5603 5604 5605 5607 5608 5609 5609 5610 5610 5611 5611 5610 5610 5610 5610 5609 5608 5608 5607 5606 5606 5605 5605 5604 5603 5603 5603 5602 5602 5602 5602
5581 5581 5581 5582 5583 5584 5585 5586 5588 5589 5590 5592 5593 5594 5596 5597 5598 5599 5599 5600 5600 5601 5601 5600 5600 5600 5600 5599 5599 5598 5598 5597 5597 5596 5595 5595 5595 5594 5594 5594 5593 5593 5593
5573 5573 5573 5573 5573 5574 5576 5577 5578 5579 5581 5582 5583 5585 5586 5587 5588 5589 5590 5590 5591 5591 5591 5591 5591 5590 5590 5590 5589 5589 5588 5588 5587 5587 5587 5586 5586 5586 5585 5585 5585 5585 5585
5565 5564 5564 5563 5564 5565 5567 5568 5569 5571 5572 5573 5574 5575 5576 5577 5578 5579 5580 5580 5581 5581 5581 5581 5581 5581 5580 5580 5579 5579 5579 5578 5578 5578 5578 5578 5578 5577 5577 5577 5577 5576 5576
5557 5556 5556 5556 5557 5558 5559 5560 5561 5562 5563 5564 5565 5566 5567 5568 5569 5570 5570 5571 5571 5571 5571 5571 5571 5571 5571 5570 5570 5570 5569 5569 5569 5569 5569 5569 5569 5569 5568 5568 5568 5568 5568
5549 5549 5549 5549 5550 5550 5551 5552 5552 5553 5554 5555 5556 5557 5558 5558 5559 5560 5561 5561 5561 5561 5561 5561 5561 5561 5561 5560 5560 5560 5560 5560 5560 5560 5560 5560 5560 5560 5560 5559 5559 5559 5558